TimeEDT,TemperatureF,Dew PointF,Humidity,Sea Level PressureIn,VisibilityMPH,Wind Direction,Wind SpeedMPH,Gust SpeedMPH,PrecipitationIn,Events,Conditions,WindDirDegrees,DateUTC
12:53 AM,48.9,41.0,74,29.75,10.0,SSE,4.6,-,N/A,,Partly Cloudy,160,2013-10-20 04:53:00
1:53 AM,48.9,42.1,77,29.74,10.0,South,3.5,-,N/A,,Overcast,170,2013-10-20 05:53:00
2:53 AM,48.9,42.1,77,29.72,10.0,SSE,5.8,-,N/A,,Overcast,150,2013-10-20 06:53:00
3:53 AM,48.0,42.1,80,29.70,10.0,SSE,6.9,-,N/A,,Mostly Cloudy,150,2013-10-20 07:53:00
4:53 AM,48.0,44.1,86,29.69,10.0,SSE,4.6,-,N/A,,Overcast,160,2013-10-20 08:53:00
5:53 AM,48.9,46.0,90,29.66,9.0,SSE,9.2,-,N/A,,Overcast,150,2013-10-20 09:53:00
6:53 AM,48.9,46.9,93,29.66,9.0,SSE,4.6,-,N/A,,Overcast,160,2013-10-20 10:53:00
7:53 AM,50.0,46.9,89,29.66,8.0,South,6.9,-,0.00,Rain,Light Rain,180,2013-10-20 11:53:00
8:53 AM,50.0,46.9,89,29.65,9.0,South,5.8,-,0.02,Rain,Light Rain,170,2013-10-20 12:53:00
9:53 AM,52.0,48.9,89,29.64,10.0,South,6.9,-,N/A,,Overcast,180,2013-10-20 13:53:00
10:36 AM,51.8,48.2,88,29.62,10.0,SSE,6.9,-,N/A,,Overcast,160,2013-10-20 14:36:00
10:53 AM,52.0,48.9,89,29.62,10.0,South,8.1,-,N/A,,Overcast,170,2013-10-20 14:53:00
11:10 AM,51.8,48.2,88,29.61,1.5,South,10.4,16.1,0.08,Rain,Heavy Rain,190,2013-10-20 15:10:00
11:14 AM,51.8,48.2,88,29.62,1.2,SW,13.8,20.7,0.09,Rain,Heavy Rain,220,2013-10-20 15:14:00
11:19 AM,51.8,48.2,88,29.62,2.0,WSW,11.5,20.7,0.09,Rain,Light Rain,240,2013-10-20 15:19:00
11:26 AM,51.8,48.2,88,29.62,10.0,SW,8.1,-,0.09,,Overcast,220,2013-10-20 15:26:00
11:53 AM,50.0,46.0,86,29.63,10.0,West,11.5,20.7,0.09,,Overcast,260,2013-10-20 15:53:00
12:13 PM,51.8,46.4,82,29.62,8.0,SW,5.8,-,0.00,Rain,Light Rain,230,2013-10-20 16:13:00
12:53 PM,51.1,46.0,83,29.64,10.0,West,5.8,-,0.00,,Overcast,270,2013-10-20 16:53:00
1:53 PM,55.0,43.0,64,29.64,10.0,WNW,8.1,17.3,N/A,,Mostly Cloudy,290,2013-10-20 17:53:00
2:53 PM,55.9,39.0,53,29.64,10.0,West,8.1,-,N/A,,Mostly Cloudy,260,2013-10-20 18:53:00
3:53 PM,55.9,30.9,39,29.65,10.0,WSW,15.0,21.9,N/A,,Clear,250,2013-10-20 19:53:00
4:53 PM,54.0,27.0,35,29.67,10.0,West,15.0,23.0,N/A,,Clear,270,2013-10-20 20:53:00
5:53 PM,51.1,28.9,43,29.70,10.0,WNW,8.1,-,N/A,,Partly Cloudy,290,2013-10-20 21:53:00
6:53 PM,48.0,30.0,50,29.73,10.0,West,6.9,-,N/A,,Mostly Cloudy,280,2013-10-20 22:53:00
7:53 PM,48.9,30.0,48,29.75,10.0,West,9.2,-,N/A,,Overcast,270,2013-10-20 23:53:00
8:53 PM,48.9,30.9,50,29.77,10.0,West,9.2,-,N/A,,Overcast,260,2013-10-21 00:53:00
9:53 PM,46.0,30.9,56,29.79,10.0,West,5.8,-,N/A,,Clear,280,2013-10-21 01:53:00
10:53 PM,45.0,32.0,60,29.80,10.0,SW,3.5,-,N/A,,Scattered Clouds,220,2013-10-21 02:53:00
11:53 PM,45.0,32.0,60,29.81,10.0,West,6.9,17.3,N/A,,Partly Cloudy,260,2013-10-21 03:53:00